VOLGA DEB, 44621

Orbit data source: Space-Track

VOLGA DEB, 44621 is space debris in SSO originally from a launch on Wed, 10 Jul 2019 UTC launched from the Plesetsk Missile And Space Complex (PKMTR). Debris objects in space refer to the collection of defunct objects orbiting the Earth. Examples of debris include non-operational satellites, rocket bodies, and fragments generated from explosions, collisions, or faulty payload assembly.

Loading next visibility...
Identifier
44621, 2019-039F
Orbit
SSO
Last TLE update
23 hours ago
Origin
Manufacturer
TSKHM?
Mission
Spacecraft
Bus & Motor
NAPRAZHENIYE?, Unknown motor
Mass
~47 kg wet, ~47 kg dry
Launch date (UTC)
2019-07-10 (6 years ago)
Launch vehicle
Unknown
Launch site
Plesetsk Missile And Space Complex (PKMTR)
Object type
Payload
Rocket body
Debris
Shape & HBR
Unknown
Radar Cross Section
Small (<0.1 m²)

Expand to show TLE details & history

TLE from 23 hours ago
0 VOLGA DEB
1 44621U 19039F   25182.90828086  .00002356  00000-0  22489-3 0  9992
2 44621  97.6125 214.7170 0007738 341.8064  18.2879 14.94221974324098
Epoch: 2025-07-01T21:47Z
TLE epoch observation values (Epoch: 2025-07-01T21:47:55.466Z)
Latitude
0.00003°
Longitude
-32.4611°
Altitude
582.722 km
Speed
7.572 km/s
True Right ascension
14h 18m 52s
True Declination
0° 00' 00"
Sunlit
Object was in daylight at epoch
Visualization orbit readout
Latitude
74.06568°
Longitude
176.21371°
Altitude
600.605 km
Speed
7.564 km/s
Apparent Right ascension
22h 02m 08s
Apparent Declination
30° 41' 02"
Sunlit
Object is in daylight
Visualization observer readout
Local Sidereal Time
08:29:53
Azimuth
339.46° N
Elevation
-16.227°
Doppler factor
1
Orbital elements
Apogee altitude
587.183 km
Perigee altitude
576.412 km
Semi-major axis
6,959.935 km
Eccentricity
0.00077
Inclination
97.6125°
RAAN
214.717°
Arg. of periapsis
341.8064°
True anomaly
Unknown
Mean anomaly
18.2879°
Eccentric anomaly
Unknown
Mean motion
3.73797 °/min
Orbital period
96.31 mins
BSTAR
0.00022489
Loading maneuver chart data...
Loading SW <> Apogee altitude chart data...

VOLGA DEB Visibility forecast

Observer location: undefined°, undefined°

Span
Click to sort rows by Start time (UTC) header in descending order
Start Az.
Max El. time (UTC)
Max El. Az.
Max El.
End time (UTC)
End Az.
6 mins2025-07-03 01:15:48.167Z117.334° SE2025-07-03 01:18:48.167Z68.977° E20.093°2025-07-03 01:21:48.167Z19.998° NNE
5 mins2025-07-03 02:51:48.167Z215.509° SW2025-07-03 02:53:48.167Z255.842° W25.339°2025-07-03 02:56:48.167Z316.843° NNW
6 mins2025-07-03 14:33:48.167Z36.786° NE2025-07-03 14:36:48.167Z116.876° SE32.52°2025-07-03 14:39:48.167Z167.256° S
|